Location: Four Corners
(38.2757°N, 122.4608°W)
Time: 20:19:50
(UTC+00:00)

Cosmos 2242 Rocket - Pass Details

Date: 08 December 2019
Orbit: 617 x 652 km, 82.5° (Epoch: 24 January)

Event Time Altitude Azimuth Distance (km) Brightness Sun altitude
Rises 01:34:34 0° 169° (SSE) 2,937 7.2 -8.9°
Reaches altitude 10° 01:36:53 10° 162° (SSE) 2,037 6.3 -9.3°
Maximum altitude 01:41:09 42° 92° (E) 930 4.0 -10.1°
Drops below altitude 10° 01:45:28 10° 22° (NNE) 2,064 5.8 -10.9°
Sets 01:47:49 0° 15° (NNE) 2,981 6.7 -11.3°
Enters shadow 01:47:51 - 15° (NNE) 3,000 6.7 -11.3°
